Regional Weather Roundup
Issued by NWS Boston, MA

Home | Current Version | Previous Version | Text Only | Print | Product List | Glossary On
Versions: 1 2 3 4 5 6 7 8 9 10 11 12 13 14 15 16 17 18 19 20 21 22 23 24 25 26 27 28 29 30 31 32 33 34 35 36 37 38 39 40 41 42 43 44 45 46 47 48 49 50
000
ASUS41 KBOX 301710
RWRBOX

REGIONAL WEATHER ROUNDUP
NATIONAL WEATHER SERVICE TAUNTON MA
100 PM EDT TUE SEP 30 2014

NOTE:  "FAIR" INDICATES FEW OR NO CLOUDS BELOW 12,000 FEET WITH NO
SIGNIFICANT WEATHER AND/OR OBSTRUCTIONS TO VISIBILITY.  THE FOLLOWING
OBSERVATION LOCATIONS DO NOT REPORT PRESENT WEATHER...PROVINCETOWN...
SMITHFIELD...BLOCK ISLAND...KEENE...AND OXFORD.

MAZALL-301800-
EASTERN MASSACHUSETTS

CITY           SKY/WX    TMP DP  RH WIND       PRES   REMARKS
BOSTON         LGT RAIN  57  55  93 NE8       30.04S
BEVERLY        LGT RAIN  56  54  93 N6        30.02F
LAWRENCE       CLOUDY    57  54  89 NE6       30.05F FOG
BEDFORD        CLOUDY    56  55  97 NE7       30.02S
BLUE HILL        N/A     54  54 100 NE9       30.02S
NORWOOD        LGT RAIN  57  55  93 NE7       30.02S
MARSHFIELD     NOT AVBL
PLYMOUTH       LGT RAIN  58  57  97 N12       30.01F
TAUNTON        LGT RAIN  59  56  89 NE6       30.01F
NEW BEDFORD    LGT RAIN  59  56  89 NE9       29.99F
$$

MAZALL-301800-
CAPE COD AND THE ISLANDS

CITY           SKY/WX    TMP DP  RH WIND       PRES   REMARKS
FALMOUTH       LGT RAIN  59  59 100 N10G17    29.99F
HYANNIS        LGT RAIN  62  60  93 N9        29.97F FOG
CHATHAM        LGT RAIN  62  60  93 N5        29.99F FOG
PROVINCETOWN   CLOUDY    59  57  94 NE13      30.01S
NANTUCKET      LGT RAIN  64  62  93 N12       29.97F
MARTHAS VNYRD  LGT RAIN  60  59  96 NE13      29.98F
$$

MAZALL-301800-
CENTRAL AND WESTERN MASSACHUSETTS

CITY           SKY/WX    TMP DP  RH WIND       PRES   REMARKS
WORCESTER      LGT RAIN  54  54 100 NE7       30.02F FOG
FITCHBURG      CLOUDY    58  53  84 E6        30.04S
ORANGE         CLOUDY    60  54  80 E6        30.02S
SPRINGFIELD    CLOUDY    60  55  82 N6        30.00F
WESTFIELD      CLOUDY    61  55  81 NE3       30.01S
NORTH ADAMS    CLOUDY    63  55  75 E8        29.99S
PITTSFIELD     CLOUDY    61  55  81 E7        29.98F
$$

RIZALL-301800-
RHODE ISLAND

CITY           SKY/WX    TMP DP  RH WIND       PRES   REMARKS
PROVIDENCE     LGT RAIN  59  57  93 NE10      30.01F
NEWPORT        CLOUDY    60  56  86 N12       29.99F
BLOCK ISLAND   CLOUDY    61  55  82 NE9G16    29.98F
SMITHFIELD     CLOUDY    55  50  82 NE7       30.01F
WESTERLY       LGT RAIN  60  57  89 NE6       30.00R
$$

CTZALL-301800-
CONNECTICUT

CITY           SKY/WX    TMP DP  RH WIND       PRES   REMARKS
BRADLEY INTL   CLOUDY    62  54  74 N6        29.99F
HARTFORD       CLOUDY    61  55  81 VRB7      30.00S
BRIDGEPORT     LGT RAIN  64  59  83 NE7       29.99R
DANBURY        CLOUDY    62  57  83 E7        30.00S
GROTON         LGT RAIN  60  59  96 NE7       29.99S
NEW HAVEN      CLOUDY    64  57  78 N7        29.99R
CHESTER        NOT AVBL
MERIDEN        CLOUDY    60  56  86 N7        30.00R
WILLIMANTIC    CLOUDY    61  55  81 NE6       30.00F
OXFORD         CLOUDY    57  54  88 E5        30.01S FOG
$$

MEZ002-015-021-024-NHZ003-005-008-011-012-014-VTZ005-008-301800-
NORTHERN NEW ENGLAND

CITY           SKY/WX    TMP DP  RH WIND       PRES   REMARKS
PORTLAND ME    CLOUDY    57  51  80 N5        30.05F
BANGOR ME      CLOUDY    54  47  77 N9        30.08S
CONCORD NH     CLOUDY    60  53  77 CALM      30.03S
MANCHESTER NH  CLOUDY    57  52  83 E5        30.02F
NASHUA NH      CLOUDY    58  54  86 NE3       30.04F
PORTSMOUTH NH  CLOUDY    55  52  89 N2        30.04S
JAFFREY NH     CLOUDY    58  53  84 CALM      30.04S
KEENE NH       CLOUDY    61  48  63 CALM      30.02F
BURLINGTON VT  MOSUNNY   70  56  61 E8        29.97S
MT. WASHINGTON PTSUNNY   48  43  81 W5          N/A  VSB 1/2
$$

NYZ052-076-301800-
EASTERN NEW YORK

CITY           SKY/WX    TMP DP  RH WIND       PRES   REMARKS
ALBANY         PTSUNNY   71  57  61 S8        29.96S
NEW YORK CITY  NOT AVBL
$$

ANZALL-301800-
MARINE OBSERVATIONS

STATION/POSITION TIME  TEMP    WIND        PRES    VSBY  WAVE
                       AIR SEA DIR/SP/G                  HT/PER
                 (UTC) (F)     (DEG/KT/KT) (MB)    (MI)  (FT/S)
BOSTON BUOY      1650   56 60   40/ 14/ 16 1016.9R         6/ 8
BUZZARDS BAY     1600           40/ 16/ 18 1016.2F
NANTUCKET SOUND  1650   62 66   10/ 12/ 14 1014.9F         1/ 3
MASS BAY-STELLWA 1604   56 60   20/ 14/ 17   N/A    1 7/8  5/ 6
ISLE OF SHOALS   1600   54      20/ 16/ 17 1016.5F
S OF BLOCK IS    1608      68                N/A           3/ 4
$$

......................KEY.........................
  SKY/WX - SKY CONDITION/PRESENT WEATHER
  TMP    - TEMPERATURE IN FAHRENHEIT
  DWPT   - DEWPOINT IN FAHRENHEIT
  RH     - RELATIVE HUMIDITY IN PERCENT
  WIND   - DIRECTION AND SPEED IN MPH
  PRES   - MEAN SEA LEVEL PRESSURE IN INCHES OF HG
  WCI    - WIND CHILL INDEX
  VSB    - VISIBILITY IN MILES
  HX     - HEAT INDEX
  TC     - TEMPERATURE IN CELSIUS
  VRB    - VARIABLE WIND DIRECTION
  N/A    - NOT AVAILABLE



USA.gov is the U.S. government's official web portal to all federal, state and local government web resources and services.